Location: Goettingen
(51.5300°N, 9.9433°E)
Time: 15:14:55
(UTC+02:00)

ISS - Pass Details

Date: 14 October 2017
Orbit: 401 x 408 km, 51.6° (Epoch: 18 October)

Event Time Altitude Azimuth Distance (km) Brightness Sun altitude
Rises 19:13:04 0° 283° (WNW) 2,325 1.7 -7.6°
Reaches altitude 10° 19:15:21 10° 270° (W) 1,463 0.7 -8.0°
Maximum altitude 19:18:08 26° 212° (SSW) 846 -1.8 -8.4°
Drops below altitude 10° 19:20:55 10° 154° (SSE) 1,460 -1.2 -8.9°
Enters shadow 19:22:54 - 142° (SE) 2,207 -0.4 -9.2°
